Location: Unspecified
(54.1780°N, 0.0000°E)
Time: 10:38:14
(UTC+00:00)

Altair - All Passes

Search period start: 18 June 2019 00:00
Search period end: 28 June 2019 00:00
Orbit: 1501 x 1683 km, 47.2° (Epoch: 17 June)

Date Brightness Start Highest point End Pass type
(mag) Time Alt. Az. Time Alt. Az. Time Alt. Az.
18 Jun - 00:42:09 10° W 00:51:44 57° S 01:01:33 10° ESE visible
18 Jun - 02:46:34 10° W 02:55:20 36° SSW 03:04:13 10° SSE daylight
18 Jun - 04:53:33 10° W 04:57:45 13° SW 05:01:58 10° SSW daylight
18 Jun - 20:11:26 10° SSW 20:19:20 30° SE 20:27:28 10° E daylight
18 Jun - 22:13:18 10° WSW 22:22:37 53° SSE 22:32:15 10° E visible
19 Jun - 00:17:01 10° W 00:26:35 57° S 00:36:24 10° ESE visible
19 Jun - 02:21:22 10° W 02:30:16 38° SSW 02:39:15 10° SSE visible
19 Jun - 04:27:50 10° W 04:32:47 15° SW 04:37:43 10° SSW daylight
19 Jun - 19:46:37 10° SSW 19:54:18 28° SE 20:02:10 10° E daylight
19 Jun - 21:48:15 10° SW 21:57:29 52° SSE 22:07:03 10° E visible
19 Jun - 23:51:53 10° W 00:01:27 58° S 00:11:16 10° ESE visible
20 Jun - 01:56:11 10° W 02:05:10 40° SSW 02:14:16 10° SSE visible
20 Jun - 04:02:16 10° W 04:07:47 16° SW 04:13:19 10° SSW daylight
20 Jun - 19:21:51 10° S 19:29:16 26° SE 19:36:53 10° E daylight
20 Jun - 21:23:13 10° SW 21:32:22 50° SSE 21:41:52 10° E visible
20 Jun - 23:26:46 10° W 23:36:18 59° S 23:46:07 10° ESE visible
21 Jun - 01:31:01 10° W 01:40:04 41° SSW 01:49:16 10° SE visible
21 Jun - 03:36:47 10° W 03:42:47 18° SW 03:48:49 10° SSW daylight
21 Jun - 18:57:06 10° S 19:04:15 25° SE 19:11:35 10° E daylight
21 Jun - 20:58:11 10° SW 21:07:15 49° SSE 21:16:40 10° E daylight
21 Jun - 23:01:38 10° WSW 23:11:09 59° S 23:20:58 10° ESE visible
22 Jun - 01:05:51 10° W 01:14:57 43° SSW 01:24:15 10° SE visible
22 Jun - 03:11:22 10° W 03:17:46 19° SW 03:24:14 10° S daylight
22 Jun - 18:32:24 10° S 18:39:14 23° SE 18:46:14 10° E daylight
22 Jun - 20:33:11 10° SW 20:42:09 47° SSE 20:51:28 10° E daylight
22 Jun - 22:36:32 10° WSW 22:46:00 59° S 22:55:48 10° ESE visible
23 Jun - 00:40:42 10° W 00:49:51 45° SSW 00:59:13 10° SE visible
23 Jun - 02:45:59 10° W 02:52:45 21° SW 02:59:36 10° S daylight
23 Jun - 18:07:45 10° S 18:14:14 21° SE 18:20:53 10° E daylight
23 Jun - 20:08:11 10° SW 20:17:03 45° SSE 20:26:15 10° E daylight
23 Jun - 22:11:26 10° WSW 22:20:51 59° S 22:30:38 10° ESE visible
24 Jun - 00:15:32 10° W 00:24:44 46° SSW 00:34:10 10° SE visible
24 Jun - 02:20:39 10° W 02:27:44 23° SW 02:34:54 10° S visible
24 Jun - 17:43:08 10° S 17:49:15 19° SE 17:55:29 10° E daylight
24 Jun - 19:43:12 10° SW 19:51:57 44° SSE 20:01:03 10° E daylight
24 Jun - 21:46:20 10° WSW 21:55:43 59° S 22:05:27 10° ESE visible
24 Jun - 23:50:24 10° W 23:59:37 48° SSW 00:09:05 10° SE visible
25 Jun - 01:55:21 10° W 02:02:41 24° SW 02:10:10 10° S visible
25 Jun - 17:18:35 10° SSE 17:24:16 18° SE 17:30:03 10° E daylight
25 Jun - 19:18:14 10° SW 19:26:53 42° SSE 19:35:51 10° E daylight
25 Jun - 21:21:14 10° WSW 21:30:34 58° S 21:40:17 10° E visible
25 Jun - 23:25:15 10° W 23:34:30 49° SSW 23:44:01 10° SE visible
26 Jun - 01:30:04 10° W 01:37:40 26° SW 01:45:23 10° S visible
26 Jun - 16:54:08 10° SSE 16:59:18 16° SE 17:04:33 10° E daylight
26 Jun - 18:53:17 10° SW 19:01:48 40° SSE 19:10:38 10° E daylight
26 Jun - 20:56:09 10° WSW 21:05:26 58° S 21:15:06 10° E daylight
26 Jun - 23:00:07 10° W 23:09:22 51° SSW 23:18:55 10° SE visible
27 Jun - 01:04:50 10° W 01:12:37 27° SW 01:20:34 10° SSE visible
27 Jun - 16:29:46 10° SSE 16:34:20 15° SE 16:38:58 10° E daylight
27 Jun - 18:28:20 10° SSW 18:36:44 38° SSE 18:45:26 10° E daylight
27 Jun - 20:31:04 10° WSW 20:40:19 57° S 20:49:56 10° E daylight
27 Jun - 22:34:59 10° W 22:44:15 52° SSW 22:53:49 10° SE visible
